Temperature
20 20 20 20 20 21 23 24 25 25 25 25 25 25 24 22 21 19 18 19 18 18 18 18 18 18 18 18 18 18 18 18 18 18 18 18 18 18 18 18 18 18 18 18 18 18 18 18 18
20 20 20 21 21 22 23 24 24 25 25 25 25 25 23 22 20 19 18 18 18 18 18 18 18 18 18 18 18 18 18 18 18 18 18 17 17 17 17 17 17 17 17 17 17 17 18 18 18
20 21 21 22 22 23 23 24 24 25 25 25 25 24 22 21 20 18 18 18 18 18 18 18 18 18 18 18 18 18 17 17 17 17 17 17 17 17 17 17 17 17 17 17 17 17 17 18 18
21 21 22 22 23 24 24 25 25 25 25 25 24 23 20 20 19 18 18 18 18 18 18 18 18 18 18 18 17 17 17 17 17 17 17 17 17 17 17 17 17 17 17 17 17 17 17 17 17
21 22 22 23 23 24 25 25 25 25 25 24 24 21 19 19 19 18 18 18 18 18 18 18 18 18 18 18 17 17 17 17 17 17 17 17 17 17 17 17 17 17 17 17 17 17 17 17 17
22 23 22 23 23 24 25 25 25 24 24 24 23 21 19 18 18 18 18 18 18 18 18 18 18 18 18 18 17 17 17 17 17 17 17 17 17 17 17 17 17 17 17 17 17 17 17 17 17
22 22 22 23 23 23 24 25 24 24 23 23 23 21 19 18 18 18 18 18 18 18 18 18 18 18 18 17 17 17 17 17 17 17 17 17 17 17 17 17 17 17 17 17 17 17 17 17 17
22 23 23 24 23 23 24 24 24 23 23 22 22 21 19 18 18 18 18 18 18 18 18 18 18 17 17 17 17 17 17 17 17 17 17 17 17 17 16 17 17 17 17 17 17 17 17 17 17
22 22 22 23 23 23 24 24 23 23 22 21 21 20 19 18 18 18 18 18 18 18 18 18 18 18 17 17 17 17 17 17 17 17 17 17 16 16 16 17 17 17 17 17 17 17 17 17 17
23 22 23 24 24 23 24 24 23 23 22 21 20 19 19 18 18 18 18 18 18 18 18 18 18 18 18 17 17 17 17 17 17 17 17 17 16 16 17 17 17 17 17 17 17 17 17 17 17
23 23 23 24 24 23 23 23 23 23 22 21 20 19 18 18 18 18 18 18 18 18 18 18 18 18 18 17 17 17 17 17 17 17 17 17 17 17 17 17 17 17 17 17 17 17 17 17 17
24 23 24 23 23 23 23 23 22 22 21 21 20 19 19 19 18 18 18 18 18 18 18 18 18 18 18 17 17 17 17 17 17 17 17 17 17 17 17 17 17 17 17 17 17 17 17 17 17
23 23 23 23 23 22 22 22 22 21 21 20 20 19 19 19 19 18 18 18 18 18 18 18 18 18 18 17 17 17 17 17 17 17 17 17 17 17 17 17 17 17 17 17 17 17 17 17 16
24 23 23 23 23 22 22 22 22 21 21 20 20 19 19 19 19 19 18 18 18 18 18 18 18 18 18 18 17 17 17 17 17 17 17 17 17 17 17 17 17 17 17 17 17 17 17 16 16
24 23 23 23 23 23 23 22 22 21 21 20 20 19 19 19 19 19 19 18 18 18 18 18 18 18 18 18 17 17 17 17 17 17 17 17 17 17 17 17 17 17 17 17 17 16 16 16 16
24 23 22 23 23 23 22 21 22 21 21 20 20 20 19 19 19 19 19 19 18 18 18 18 18 17 17 17 17 17 17 17 17 17 17 17 17 17 17 17 17 17 17 17 16 16 16 16 16
23 22 22 23 24 24 23 21 22 22 21 21 20 20 20 19 19 19 19 19 18 18 18 18 18 17 17 17 17 17 17 17 17 17 17 17 17 17 17 17 17 16 16 16 16 16 16 16 16
23 23 23 23 24 24 23 22 22 22 22 21 21 20 20 20 19 19 19 19 18 18 18 17 17 17 17 17 17 17 17 17 17 17 17 17 17 17 17 16 16 16 16 16 16 16 16 16 16
24 24 23 23 24 24 23 23 23 22 22 21 21 20 20 20 20 19 19 19 18 18 18 18 17 17 17 17 17 17 17 16 16 16 16 16 16 16 16 16 16 16 16 16 16 16 16 16 16
24 24 23 24 24 24 23 23 23 23 22 22 21 21 20 20 20 19 19 19 18 18 18 18 17 17 17 17 17 17 16 16 16 16 16 16 16 16 16 16 16 16 16 16 16 16 16 16 16
24 24 23 23 24 24 23 22 23 23 23 22 22 21 21 21 20 19 19 19 19 18 18 18 18 17 17 17 17 16 16 16 16 16 16 16 16 16 16 16 16 16 16 16 15 15 15 15 15
23 24 24 24 22 22 23 21 22 23 22 22 22 22 21 21 20 19 19 19 19 18 18 18 18 17 17 17 17 17 16 16 16 16 16 16 16 16 16 16 16 15 15 15 15 15 15 15 15
24 25 24 24 23 22 23 23 23 23 22 22 22 22 21 21 20 20 19 19 18 18 18 18 18 17 17 17 17 16 16 16 16 16 16 16 16 15 15 16 16 16 15 15 15 15 15 15 15
25 24 24 24 23 21 23 23 22 23 23 23 23 22 21 21 20 20 19 19 18 18 18 18 18 18 17 17 17 16 16 16 16 16 16 16 15 15 15 15 16 15 15 15 15 15 15 15 15
24 23 21 21 21 22 24 23 23 24 25 24 23 22 22 21 20 20 19 19 18 18 18 18 18 17 17 17 17 16 16 16 16 16 16 16 16 15 15 15 15 15 15 15 15 15 15 15 15
24 23 21 21 21 22 24 23 23 25 25 24 23 22 21 21 20 20 19 19 18 18 18 17 17 17 17 17 17 16 16 16 16 16 16 16 16 16 16 15 15 15 15 15 15 15 15 15 15
23 23 24 22 23 23 23 24 24 24 24 24 23 22 22 21 20 20 19 19 18 18 18 17 17 17 17 17 17 17 16 16 16 16 16 16 16 16 16 15 15 15 15 15 15 15 15 15 15
24 24 23 22 21 21 22 23 22 23 23 23 23 22 22 21 20 20 19 19 18 18 18 17 17 17 17 17 17 17 16 16 16 16 16 16 16 15 15 15 15 15 15 15 15 15 15 15 15
23 23 23 22 22 21 21 21 24 24 24 23 23 22 22 21 20 20 19 18 18 18 17 17 17 17 17 17 17 16 16 16 16 16 16 16 15 15 15 15 15 15 15 15 15 15 15 15 14
23 23 23 21 21 22 21 21 24 24 24 24 23 22 22 21 20 19 19 18 18 17 17 17 17 17 17 17 16 16 16 16 16 15 15 15 15 15 15 15 15 15 15 15 15 15 15 14 14
Wind_Speed
8 9 6 2 2 3 1 2 5 6 6 8 9 8 12 12 8 8 3 7 12 12 13 13 12 12 12 12 12 12 12 12 12 11 11 12 12 12 12 11 12 12 11 11 10 10 10 10 10
9 5 3 3 3 2 1 3 7 8 6 6 7 10 12 11 10 7 4 8 11 12 12 13 13 13 12 12 12 13 13 12 12 12 12 12 12 12 12 11 11 11 11 10 10 9 9 10 9
10 6 3 3 2 1 3 5 7 8 7 6 7 9 8 6 7 5 6 8 11 12 13 13 13 13 12 13 13 13 13 12 12 12 12 12 12 12 11 11 11 11 10 10 10 9 9 9 8
5 3 3 3 2 3 5 6 6 7 6 6 7 9 7 7 5 8 9 10 11 12 14 13 13 12 12 12 12 12 12 12 12 12 12 11 11 12 11 11 11 11 10 10 9 9 8 8 8
4 3 3 3 1 4 6 6 5 6 6 6 8 9 7 8 10 11 9 10 11 12 13 13 13 12 12 12 12 12 12 12 12 11 11 11 11 11 11 11 11 10 10 10 9 9 8 8 7
2 3 3 2 2 4 4 5 4 6 6 6 7 9 6 7 9 8 9 9 10 11 12 12 13 12 12 11 12 12 12 11 11 11 10 10 10 11 11 10 9 9 9 9 9 8 8 7 6
3 3 4 1 3 3 3 4 4 5 6 5 4 7 7 7 7 7 8 8 9 10 11 11 12 12 12 11 11 12 11 10 10 9 9 9 10 10 10 9 8 8 8 8 8 7 7 6 5
4 3 3 0 3 3 3 5 5 6 5 5 5 6 7 8 8 7 7 7 8 8 8 9 10 12 12 11 11 11 10 9 8 8 7 7 9 9 9 8 7 7 7 6 6 6 5 4 3
3 2 3 3 2 3 4 5 4 6 7 7 7 8 9 12 10 8 7 6 6 7 7 6 8 9 10 11 10 9 9 8 7 7 7 7 7 9 8 9 7 5 5 5 4 5 4 3 1
1 1 2 3 4 4 4 4 3 4 6 6 9 11 12 10 10 9 7 6 7 6 6 6 6 7 8 7 8 7 7 7 7 6 7 6 5 7 9 8 7 5 4 4 4 4 5 4 3
1 1 2 3 4 3 4 3 3 4 4 5 9 12 11 9 8 8 7 7 6 6 5 5 5 6 6 4 5 4 4 3 4 4 5 5 6 6 7 7 6 6 5 3 4 5 4 2 2
0 1 2 2 3 3 2 2 3 4 4 7 10 12 11 9 8 7 7 7 6 6 4 4 5 5 5 5 3 3 3 1 2 2 4 4 2 2 3 3 4 5 3 2 2 1 2 4 6
2 1 1 2 3 3 3 4 3 4 7 8 10 11 10 9 8 6 7 8 8 6 4 4 4 4 5 4 2 3 2 2 3 2 2 4 2 2 2 2 2 2 3 2 1 2 4 5 6
2 2 2 1 2 2 3 3 2 3 7 8 9 9 8 7 8 7 7 7 8 6 5 4 3 3 4 3 2 3 3 2 3 1 1 4 4 3 1 3 2 3 3 2 3 4 4 3 4
3 2 2 3 3 3 3 2 3 5 7 8 8 8 7 7 7 7 7 7 7 7 6 4 3 4 3 3 3 3 2 3 3 1 1 5 5 4 3 2 2 2 4 5 5 5 4 3 3
5 4 3 4 5 5 4 2 3 6 8 8 7 7 7 7 7 7 7 6 7 6 6 5 4 5 4 3 2 2 3 3 3 3 4 4 5 6 4 2 2 4 4 3 3 3 3 3 3
6 5 4 4 5 5 5 3 4 5 6 8 8 7 7 8 7 6 6 7 7 7 7 5 3 4 4 3 2 3 4 3 4 4 4 4 5 6 5 2 2 5 3 2 3 3 2 2 2
4 4 3 3 4 5 5 4 5 7 6 6 8 8 7 8 8 8 6 6 7 7 7 6 4 4 4 3 3 3 3 3 3 4 3 4 4 5 5 2 3 4 3 3 3 3 2 2 2
5 4 2 2 3 4 5 5 6 7 7 7 8 8 8 9 10 10 8 7 7 7 8 7 6 4 4 3 3 2 2 2 2 2 2 2 3 4 4 2 3 3 3 3 3 3 3 2 2
7 5 2 2 3 4 4 5 6 8 8 7 8 9 9 9 10 10 9 7 7 7 8 8 7 6 5 3 3 3 2 1 2 2 3 3 3 4 3 3 3 3 3 4 3 3 2 1 1
7 5 4 3 4 6 5 5 7 7 8 7 8 9 10 10 10 11 10 9 7 8 7 8 8 7 6 5 3 3 2 1 2 3 2 3 4 4 4 3 3 3 3 3 2 2 3 1 2
6 4 5 5 5 5 7 5 6 8 9 9 9 8 9 9 10 10 10 9 8 8 8 8 8 8 7 7 5 4 3 2 3 2 1 1 4 4 4 4 3 3 3 3 2 3 2 2 2
5 4 7 8 7 7 9 6 4 8 9 10 9 9 9 10 10 11 10 9 8 7 6 6 7 7 7 7 6 4 3 3 3 3 2 2 3 3 4 4 3 3 3 3 3 3 3 2 1
6 7 8 9 7 8 8 5 2 4 7 9 10 10 10 10 10 10 9 8 7 7 6 5 6 6 6 7 7 5 5 4 4 4 3 2 2 1 2 2 2 2 3 3 2 2 2 2 3
7 5 3 5 6 6 5 4 2 2 4 7 9 9 9 9 10 11 10 9 7 8 7 6 6 7 6 6 6 7 6 5 5 4 3 2 2 2 2 2 1 2 3 3 3 2 2 2 2
7 7 5 3 3 4 5 3 3 4 3 4 7 9 9 9 9 10 10 9 8 8 7 7 7 7 7 6 6 7 7 4 3 4 4 3 3 3 3 3 2 2 3 3 3 2 2 2 2
7 7 7 7 8 6 4 4 4 6 5 4 7 8 9 9 8 10 11 10 9 9 7 7 8 7 7 7 6 6 7 5 4 4 3 3 3 3 3 3 2 3 3 3 3 2 2 3 3
8 6 5 5 4 4 3 3 3 5 6 6 7 8 8 8 8 9 10 9 9 8 8 7 7 8 7 7 5 5 6 6 5 4 4 3 3 3 3 4 3 3 3 3 3 2 2 3 2
8 8 6 4 5 4 3 1 1 3 4 5 7 7 8 9 8 8 9 9 9 8 7 7 6 6 7 7 6 6 6 6 5 4 4 3 3 4 3 3 3 3 4 3 3 2 2 2 2
8 8 7 5 5 6 5 1 0 2 3 3 6 6 7 8 8 8 8 8 8 8 8 8 7 7 6 6 6 6 6 6 5 5 4 4 4 3 4 4 4 3 3 3 3 3 3 3 2
Wind_Direction
249 235 226 237 248 231 232 60 72 64 67 57 57 66 71 55 56 90 120 101 106 109 110 104 99 92 89 89 92 93 93 93 92 92 92 91 89 86 84 82 83 82 80 78 75 74 73 70 67
262 240 235 235 253 246 117 83 76 69 76 81 70 70 76 69 75 95 102 93 103 106 106 102 101 94 90 88 91 92 92 92 91 92 93 92 90 87 85 82 83 82 79 77 74 75 73 69 64
258 249 248 243 260 304 84 84 91 83 66 74 84 65 57 64 76 97 110 107 102 101 101 104 103 98 93 90 91 93 93 92 91 92 92 91 91 90 87 82 80 79 77 74 73 73 72 70 63
245 241 241 248 295 42 86 93 96 102 83 66 88 78 70 54 78 107 114 108 105 104 105 108 105 102 98 93 93 94 94 93 91 91 92 91 91 90 87 82 80 78 76 75 74 73 71 67 61
238 245 242 234 273 61 75 82 88 93 92 74 81 88 80 69 91 105 108 109 108 109 110 114 112 107 104 98 95 96 95 95 94 92 92 92 92 90 85 82 81 80 77 75 74 73 74 69 61
267 260 257 226 130 86 67 63 75 93 88 87 94 100 91 92 98 105 103 102 106 112 114 116 117 112 108 105 106 102 99 97 96 98 98 98 97 93 88 84 83 83 80 78 77 77 78 72 62
276 280 268 222 119 90 76 78 70 92 87 71 79 97 113 104 100 106 107 109 111 114 120 123 125 118 113 112 114 111 107 105 105 108 109 111 110 105 98 90 86 85 83 81 81 82 83 77 64
292 294 290 263 116 100 89 87 79 78 86 65 63 101 129 133 129 117 111 115 121 122 122 129 133 129 126 120 120 120 120 121 124 127 129 128 129 122 114 103 93 90 89 89 92 95 99 94 77
286 279 323 13 76 92 101 96 88 78 84 70 64 81 121 136 133 122 116 112 113 112 116 122 120 119 124 128 130 137 139 146 152 161 166 161 160 145 126 110 114 111 114 117 120 125 134 142 162
241 320 352 24 53 85 96 90 116 113 95 92 88 95 119 136 136 130 125 118 113 110 107 106 111 117 116 119 135 145 142 160 177 168 177 181 143 120 122 134 144 151 155 161 169 179 195 210 213
209 302 14 34 53 72 94 99 94 124 110 120 129 129 135 135 134 135 132 130 121 116 107 107 112 108 110 111 119 112 118 149 156 147 141 122 113 133 144 155 167 179 179 194 182 204 224 198 100
207 12 11 46 64 85 86 94 85 88 100 110 126 138 140 141 140 142 137 129 120 113 109 107 113 113 118 112 106 126 130 134 109 120 117 108 111 124 124 130 167 170 167 149 140 116 58 65 69
205 173 77 73 84 98 99 89 90 106 110 114 122 133 141 147 145 146 141 134 128 122 129 116 111 108 100 96 132 121 112 101 96 79 100 105 96 94 103 98 81 87 91 95 70 58 54 52 55
182 144 143 150 144 145 118 113 136 142 130 131 134 140 151 153 148 147 143 139 136 141 135 121 117 111 114 128 130 105 107 117 109 104 144 125 116 105 101 97 67 56 52 49 65 75 69 59 59
203 200 197 199 194 196 170 154 182 167 147 141 146 149 154 160 154 156 155 150 146 149 142 143 143 128 115 108 102 110 135 117 98 61 94 103 104 98 79 84 92 80 56 49 51 66 71 74 71
218 211 217 211 202 203 208 202 175 162 160 155 158 159 162 162 162 164 158 149 146 145 137 138 141 128 108 96 100 110 88 80 86 60 39 64 85 90 74 66 76 81 73 68 63 65 61 57 64
225 222 205 204 195 188 198 191 175 164 169 166 168 166 167 163 164 164 158 153 152 144 136 139 134 114 101 89 80 77 79 71 72 66 44 39 65 90 91 71 68 78 69 57 69 63 67 66 58
221 223 214 210 204 200 198 187 177 174 187 178 171 173 176 172 167 163 163 162 149 144 140 136 132 116 104 96 88 66 70 70 72 71 59 44 52 78 87 85 82 82 74 55 70 82 76 69 55
255 242 220 227 230 222 214 194 189 182 190 188 182 181 186 183 171 164 165 162 152 155 150 148 152 140 117 105 107 97 84 77 81 95 92 80 77 73 73 71 71 65 69 61 59 65 74 59 75
250 253 240 236 230 252 237 220 205 192 192 192 190 185 189 184 173 164 166 164 162 163 159 156 160 148 131 126 123 119 109 106 86 54 52 47 63 66 85 86 93 83 71 56 57 62 52 26 56
248 252 243 240 249 253 252 232 203 189 182 191 195 189 188 186 176 169 173 169 167 169 169 163 158 153 147 142 117 109 92 88 88 66 38 33 51 62 60 82 90 102 99 86 67 66 59 29 14
256 259 253 242 241 247 235 245 210 189 186 192 193 188 184 180 175 168 171 171 175 173 169 163 162 160 157 149 153 155 152 151 133 125 124 62 57 59 53 68 83 91 99 97 70 67 49 51 19
264 263 256 250 254 263 247 243 211 183 190 190 188 185 183 179 177 170 171 174 173 165 163 167 160 158 155 156 158 162 157 146 133 127 126 105 73 66 52 50 69 78 87 92 77 61 38 45 45
255 261 254 244 247 254 243 239 214 199 186 181 182 180 180 178 172 165 165 166 165 158 161 169 156 153 149 155 159 167 149 141 134 134 138 129 118 106 98 66 65 83 87 89 90 91 67 44 23
246 249 254 229 217 238 229 226 191 142 149 167 174 176 173 171 171 168 167 166 159 156 160 163 155 149 155 164 167 164 154 160 159 149 149 146 134 122 124 97 57 74 84 91 84 88 87 76 52
246 241 242 259 256 252 234 207 157 136 127 144 160 165 170 171 169 167 165 162 160 156 160 165 161 160 166 174 172 157 155 158 156 155 156 159 151 147 137 117 102 86 84 93 82 74 78 80 72
250 248 258 276 284 271 223 177 155 140 149 149 156 163 171 171 167 167 164 164 161 159 163 168 167 167 171 177 170 164 159 152 154 154 148 148 152 148 143 139 137 104 85 74 82 72 63 65 51
254 265 257 253 276 274 261 225 181 160 165 165 168 170 166 164 166 163 162 164 163 162 166 172 178 175 173 170 169 155 146 144 147 140 141 144 138 143 145 142 141 135 117 93 78 73 65 95 92
230 240 243 256 260 271 279 280 190 157 160 169 167 163 162 165 167 161 161 164 161 158 163 171 178 173 169 169 163 151 147 143 138 138 147 147 149 152 150 144 140 133 130 129 124 127 101 89 106
264 256 249 247 260 265 270 238 336 128 130 143 150 153 156 156 153 152 154 155 157 162 169 174 177 172 168 166 161 154 151 146 145 149 159 159 156 153 153 140 132 130 125 131 140 134 123 103 80
Height
1504 1505 1506 1508 1510 1510 1508 1501 1495 1496 1496 1499 1499 1500 1504 1509 1515 1525 1525 1524 1524 1524 1525 1526 1527 1528 1529 1530 1531 1532 1533 1534 1534 1535 1535 1536 1537 1537 1538 1539 1540 1540 1540 1541 1541 1541 1542 1542 1542
1504 1506 1508 1508 1510 1513 1508 1500 1499 1499 1499 1500 1501 1503 1507 1514 1519 1522 1524 1525 1525 1526 1527 1527 1528 1529 1530 1531 1532 1533 1534 1535 1536 1536 1537 1537 1538 1539 1539 1540 1541 1541 1542 1542 1542 1543 1543 1543 1543
1504 1507 1508 1506 1507 1509 1507 1500 1499 1500 1501 1501 1504 1507 1512 1518 1521 1523 1524 1525 1526 1527 1528 1529 1530 1530 1531 1533 1533 1534 1535 1536 1537 1537 1538 1539 1539 1540 1541 1542 1542 1543 1543 1543 1544 1544 1544 1544 1545
1506 1508 1507 1507 1508 1501 1499 1499 1498 1501 1503 1504 1505 1511 1517 1521 1522 1524 1525 1526 1527 1528 1529 1530 1531 1532 1533 1534 1535 1536 1537 1538 1538 1539 1539 1540 1541 1542 1542 1543 1543 1544 1544 1544 1545 1545 1545 1545 1546
1507 1506 1507 1507 1505 1499 1498 1499 1500 1502 1504 1506 1508 1514 1520 1523 1524 1525 1526 1527 1528 1529 1530 1531 1532 1533 1534 1535 1536 1537 1538 1539 1539 1540 1541 1542 1542 1543 1544 1544 1545 1545 1545 1546 1546 1546 1546 1546 1547
1507 1504 1509 1510 1505 1500 1500 1501 1502 1503 1506 1508 1510 1515 1522 1525 1525 1526 1527 1528 1529 1530 1531 1532 1533 1534 1535 1536 1537 1538 1539 1540 1541 1542 1542 1543 1544 1545 1545 1546 1546 1546 1547 1547 1547 1547 1547 1548 1548
1507 1505 1506 1505 1505 1504 1502 1503 1504 1505 1508 1510 1512 1516 1523 1525 1526 1528 1528 1529 1531 1532 1532 1533 1534 1535 1537 1537 1538 1539 1540 1541 1542 1543 1544 1545 1546 1546 1547 1547 1548 1548 1548 1548 1549 1549 1549 1549 1550
1506 1505 1504 1503 1505 1506 1503 1504 1506 1508 1510 1512 1513 1517 1523 1525 1527 1529 1530 1531 1532 1533 1534 1535 1536 1537 1538 1539 1540 1540 1542 1543 1544 1545 1546 1546 1547 1548 1549 1549 1549 1550 1550 1550 1550 1550 1551 1551 1552
1506 1508 1509 1505 1505 1505 1504 1505 1508 1510 1512 1514 1516 1518 1521 1524 1527 1529 1531 1532 1534 1535 1536 1536 1538 1539 1540 1540 1541 1542 1543 1544 1545 1546 1547 1548 1549 1550 1551 1551 1551 1551 1552 1552 1552 1552 1553 1553 1554
1506 1510 1508 1503 1503 1505 1505 1507 1509 1511 1514 1516 1519 1521 1523 1525 1527 1529 1531 1532 1534 1535 1537 1538 1539 1540 1541 1542 1542 1543 1545 1546 1547 1548 1549 1550 1551 1552 1553 1553 1553 1553 1554 1554 1554 1554 1554 1555 1555
1505 1506 1504 1504 1505 1506 1507 1508 1509 1511 1515 1517 1519 1522 1524 1526 1528 1529 1531 1533 1534 1536 1537 1539 1540 1541 1542 1543 1544 1545 1546 1547 1548 1549 1551 1552 1553 1553 1554 1554 1554 1554 1555 1555 1556 1556 1556 1556 1557
1505 1505 1505 1506 1506 1507 1508 1509 1511 1513 1517 1518 1519 1522 1524 1526 1528 1530 1531 1533 1535 1536 1538 1539 1541 1542 1543 1544 1545 1546 1547 1548 1550 1551 1552 1553 1554 1554 1555 1555 1556 1556 1556 1557 1557 1557 1558 1558 1558
1506 1506 1507 1508 1508 1509 1510 1511 1513 1515 1517 1519 1520 1522 1524 1526 1528 1530 1532 1534 1536 1537 1539 1540 1541 1543 1544 1545 1546 1547 1549 1550 1550 1551 1552 1554 1554 1555 1556 1557 1557 1558 1558 1558 1558 1559 1559 1559 1559
1505 1506 1508 1509 1509 1510 1511 1512 1514 1516 1517 1519 1521 1523 1525 1527 1529 1531 1533 1535 1536 1538 1540 1541 1542 1544 1545 1545 1547 1548 1549 1550 1551 1552 1554 1555 1555 1556 1556 1557 1558 1558 1559 1559 1559 1559 1560 1560 1560
1506 1507 1508 1508 1508 1510 1511 1514 1514 1516 1518 1519 1521 1523 1525 1527 1529 1531 1533 1535 1536 1538 1540 1541 1543 1545 1546 1547 1548 1549 1550 1551 1552 1553 1555 1555 1556 1556 1557 1558 1559 1559 1559 1560 1560 1560 1560 1561 1561
1504 1508 1512 1508 1507 1508 1513 1518 1513 1515 1516 1519 1521 1523 1525 1527 1529 1531 1533 1535 1536 1538 1540 1542 1544 1545 1546 1548 1549 1550 1551 1552 1553 1554 1555 1556 1557 1557 1557 1558 1559 1560 1560 1560 1561 1561 1561 1562 1562
1506 1510 1511 1508 1504 1506 1509 1515 1512 1513 1515 1517 1520 1522 1524 1526 1528 1530 1532 1534 1536 1538 1540 1542 1544 1545 1547 1548 1549 1551 1551 1552 1553 1554 1555 1556 1557 1557 1558 1559 1560 1560 1560 1561 1561 1562 1562 1562 1563
1508 1506 1507 1508 1503 1504 1507 1510 1510 1512 1514 1516 1519 1521 1523 1525 1527 1529 1532 1534 1536 1537 1539 1541 1544 1545 1547 1548 1550 1551 1552 1553 1554 1555 1556 1556 1557 1558 1558 1559 1560 1560 1561 1561 1562 1562 1563 1563 1564
1498 1501 1505 1504 1500 1502 1505 1507 1508 1510 1512 1514 1517 1519 1521 1523 1526 1528 1531 1533 1535 1537 1539 1541 1543 1545 1546 1548 1549 1550 1552 1553 1554 1555 1556 1557 1558 1558 1559 1560 1560 1560 1561 1562 1562 1563 1563 1564 1564
1498 1502 1504 1502 1499 1501 1504 1505 1504 1506 1508 1511 1514 1516 1519 1521 1524 1526 1529 1532 1534 1536 1538 1540 1542 1544 1546 1547 1549 1550 1552 1553 1554 1555 1556 1557 1558 1558 1559 1560 1560 1561 1561 1562 1562 1563 1564 1564 1564
1497 1500 1502 1504 1501 1499 1503 1507 1503 1502 1505 1509 1511 1513 1516 1518 1521 1524 1527 1530 1533 1535 1537 1539 1541 1543 1545 1547 1549 1550 1551 1553 1554 1555 1556 1557 1558 1558 1559 1560 1560 1561 1562 1562 1563 1563 1564 1564 1565
1500 1495 1497 1500 1506 1509 1505 1516 1504 1500 1502 1505 1508 1510 1513 1516 1519 1522 1525 1528 1531 1533 1536 1538 1540 1542 1544 1546 1548 1549 1551 1552 1554 1555 1556 1557 1558 1558 1559 1560 1561 1561 1562 1562 1563 1563 1564 1564 1565
1496 1494 1495 1497 1502 1507 1502 1508 1504 1496 1501 1501 1504 1507 1510 1513 1516 1519 1523 1526 1529 1532 1535 1537 1539 1541 1543 1545 1547 1548 1550 1552 1553 1554 1555 1556 1557 1558 1559 1560 1561 1561 1562 1562 1563 1563 1564 1564 1565
1493 1494 1495 1495 1502 1513 1500 1504 1506 1495 1494 1496 1500 1503 1507 1511 1514 1517 1521 1524 1527 1530 1533 1536 1538 1540 1542 1544 1545 1547 1549 1551 1552 1554 1555 1556 1557 1558 1559 1560 1561 1562 1562 1563 1563 1564 1564 1564 1565
1494 1502 1514 1514 1516 1510 1491 1497 1500 1488 1487 1491 1495 1500 1504 1508 1511 1515 1519 1522 1525 1528 1531 1534 1537 1539 1541 1543 1544 1546 1548 1550 1551 1553 1554 1555 1557 1558 1559 1560 1561 1562 1562 1563 1563 1564 1564 1564 1565
1493 1497 1513 1520 1515 1506 1492 1496 1492 1484 1486 1489 1493 1497 1501 1505 1509 1513 1516 1520 1523 1526 1529 1532 1535 1537 1539 1541 1543 1545 1547 1549 1551 1552 1553 1555 1556 1557 1558 1559 1560 1561 1562 1563 1563 1564 1564 1564 1565
1494 1494 1492 1501 1500 1503 1494 1489 1486 1483 1486 1489 1492 1495 1499 1503 1506 1510 1514 1517 1521 1524 1527 1530 1533 1536 1538 1540 1542 1544 1546 1548 1549 1551 1553 1554 1555 1556 1557 1559 1560 1561 1561 1562 1563 1563 1564 1564 1564
1489 1490 1495 1502 1512 1512 1501 1495 1494 1488 1487 1487 1491 1493 1497 1501 1505 1508 1511 1515 1518 1521 1525 1528 1531 1534 1536 1539 1541 1543 1545 1546 1548 1550 1552 1553 1554 1556 1557 1558 1559 1560 1561 1561 1562 1562 1563 1564 1564
1489 1491 1492 1496 1499 1510 1512 1505 1482 1483 1484 1485 1488 1491 1495 1499 1502 1506 1509 1513 1516 1519 1523 1526 1529 1532 1535 1537 1539 1541 1543 1545 1547 1549 1551 1552 1554 1555 1556 1557 1558 1559 1560 1561 1561 1562 1562 1563 1564
1485 1486 1490 1502 1502 1498 1504 1502 1479 1480 1481 1483 1486 1490 1493 1497 1500 1504 1507 1511 1514 1518 1521 1524 1527 1530 1532 1535 1537 1540 1542 1544 1546 1548 1550 1551 1553 1554 1556 1557 1558 1559 1559 1560 1561 1561 1562 1563 1563